Meteo Giornale » Osservazioni meteo Italia » Brescia-Montichiari

ore: 18:50 - Osservazioni Meteo Brescia-Montichiari
Lat. 45° 24' N Lon. 10° 18' E Alt. 104 metri s.l.m.

sereno Europe/Rome

28 °C

Sereno

Temp. 24 Ore

21 °C

29 °C

Sud/Sud-Est

14.8 Km/h

Dew point 17 °C

Umidità 51 %

Visibilità  10 Km

Il sole sorge alle ore 06:26

Il sole tramonta alle ore 20:16

Data e Ora Cielo e Fenomeni T °C DP °C Um. % Pres. hPa Vis. km Vento km/h
Oggi h: 18:50 sereno Sereno 28 17 51 1019 10 S/SE 14.8
Oggi h: 17:50 sereno Sereno 28 17 51 1019 10 S 11.1
Oggi h: 16:50 sereno Sereno 27 17 54 1020 10 S/SE 11.1
Oggi h: 15:50 sereno Sereno 29 18 51 1020 10 N 5.5
Oggi h: 14:50 sereno Sereno 28 18 54 1021 10 N 7.4
Oggi h: 13:50 sereno Sereno 27 17 54 1021 10 N 7.4
Oggi h: 12:50 sereno Sereno 27 17 54 1021 10 SO 11.1
Oggi h: 11:50 sereno Sereno 26 18 61 1022 10 SO 7.4
Oggi h: 10:50 sereno Sereno 25 19 69 1022 10 N 5.5
Oggi h: 09:50 nuvoloso Nuvoloso 23 20 83 1021 10 N 5.5
Oggi h: 08:50 nuvoloso Nuvoloso 22 20 88 1021 10 O/NO 9.3
Oggi h: 07:50 coperto_pioggia Pioggia 22 20 88 1021 10 NE 9.3
Oggi h: 07:00 nuvoloso_temporali Temporale con Pioggia 21 19 88 1021 3 E/SE 14.8
Oggi h: 06:50 molto_nuvoloso Molto Nuvoloso 23 17 68 1021 10 E/SE 9.3
Oggi h: 05:50 molto_nuvoloso Molto Nuvoloso 22 16 68 1020 10 E/NE 7.4
Oggi h: 04:50 nuvoloso Nuvoloso 23 16 64 1020 10 NE 9.3
Oggi h: 03:50 nuvoloso Nuvoloso 24 16 60 1020 10 E 9.3
Oggi h: 02:50 nuvoloso Nuvoloso 24 16 60 1020 10 E 7.4
Oggi h: 01:50 sereno Sereno 24 16 60 1020 10 E 9.3
Oggi h: 00:50 nuvoloso Nuvoloso 26 16 54 1020 10 E 16.7
Ieri h: 23:50 nuvoloso Nuvoloso 26 17 57 1019 10 E/SE 16.7
Ieri h: 22:50 sereno Sereno 26 17 57 1019 10 E 24
Ieri h: 21:50 sereno Sereno 28 19 58 1019 10 E/SE 29.6
Ieri h: 20:50 sereno Sereno 29 16 45 1018 10 E 9.3